Flag for Uruguay Weather past 2 weeks in Minas, Uruguay

Now
50 °F

Sunny.


Feels Like: 44 °F
Forecast: 32 / 52 °F
Wind: 18 mph from Northwest

Location: Capitan Corbeta

Current Time: Jul 25, 2014 at 1:05:29 PM

Latest Report: Jul 25, 2014 at 12:00 PM


Visibility: 10 mi

Pressure: 30.09 "Hg

Humidity: 50%

Dew point: 32 °F

Location of MinasLocation

Historic Weather in Minas — Graph

°F

Minas temperature yesterday

Maximum temperature yesterday: 54 °F (at 12:00 PM)
Minimum temperature yesterday: 37 °F (at 10:00 PM)
Average temperature yesterday: 48 °F

Past Weeks' High & Low Weather Summary

 TemperatureHumidityPressure
High70 °F (Jul 21, 1:00 PM)100% (Jul 19, 10:00 PM)30.42 "Hg (Jul 19, 10:00 PM)
Low36 °F (Jul 25, 12:00 AM)43% (Jul 20, 4:00 PM)29.77 "Hg (Jul 22, 1:00 PM)
Average54 °F80%30.10 "Hg
* Reported Jul 10 12:00 Noon — Jul 25 12:00 Noon, Minas, Weather by CustomWeather, © 2014

Note: Actual official high and low records may vary slightly from our data, if they occured in-between our weather recording intervals... More about our weather records

Advertising

Minas weather history for previous 24 hours

 ConditionsComfort  
Time TempWeatherWind HumidityBarometerVisibility
12:00 PM
Jul 25
50 °FSunny.18 mph50%30.09 "Hg10 mi
11:00 AM50 °FSunny.15 mph50%30.12 "Hg10 mi
10:00 AM45 °FSunny.10 mph61%30.12 "Hg10 mi
9:00 AM41 °FSunny.8 mph70%30.12 "Hg10 mi
8:00 AM37 °FSunny.7 mph81%30.09 "Hg10 mi
7:00 AM37 °FSunny.5 mph81%30.09 "Hg10 mi
6:00 AM37 °FClear.7 mph81%30.09 "Hg10 mi
5:00 AM37 °FClear.7 mph81%30.09 "Hg10 mi
4:00 AM36 °FClear.5 mph87%30.12 "Hg10 mi
3:00 AM37 °FClear.3 mph87%30.12 "Hg10 mi
1:00 AM37 °FClear.3 mph87%30.15 "Hg10 mi
12:00 AM36 °FClear.3 mph87%30.15 "Hg10 mi
11:00 PM
Jul 24
39 °FClear.3 mph87%30.15 "Hg10 mi
10:00 PM37 °FPassing clouds.No wind87%30.18 "HgN/A
8:00 PM43 °FPassing clouds.3 mph76%30.15 "HgN/A
7:00 PM45 °FPassing clouds.No wind71%30.15 "HgN/A
6:00 PM46 °FPassing clouds.6 mph66%30.15 "HgN/A
5:00 PM50 °FPassing clouds.9 mph54%30.12 "HgN/A
4:00 PM52 °FScattered clouds.12 mph50%30.12 "HgN/A
3:00 PM54 °FScattered clouds.15 mph47%30.12 "HgN/A
2:00 PM54 °FPartly sunny.18 mph47%30.12 "HgN/A
1:00 PM54 °FScattered clouds.14 mph47%30.12 "HgN/A
Weather by CustomWeather, © 2014

See weather overviewHow to use our weather pages